星链-36719(STARLINK-36719)

导读 | 豆包AI

STARLINK-36719是美国SpaceX星链计划的卫星,于2026年2月2日发射升空。作为星链星座的组成部分,它主要为全球范围用户提供高速互联网接入服务,尤其覆盖偏远地区,助力弥合数字鸿沟,将进一步完善星链网络的全球覆盖能力,增强星座整体服务稳定性与带宽容量。

Basic Information
目录编号:
67648
目录名称:
STARLINK-36719
国际标识:
2026-022A
轨道中心:
EARTH
卫星名称:
星链-36719
卫星全名:
星链-36719(STARLINK-36719)
卫星状态:
在轨 (已飞行112 天)
发射日期:
2026-02-02 UTC
国别 :
美国 (US)
星等 :
--
Orbit Information
数据来源 国际轨道数据 AOE轨道数据
星历时间 2026-05-25T09:42:11+0800
11小时前
查看轨道信息
2026-05-21T21:00:00+0800
4天前
查看轨道信息
半长轴 6843.655km 6843.715km
偏心率 0.0001963 0.0001819
轨道倾角 97.283° 97.284°
近地点辐角 90.974° 107.854°
升交点赤经 178.256° 174.776°
平近点角 269.173° 221.859°
近地点 464.174km 464.333km
远地点 466.862km 466.823km
周期 93.906分钟 93.907分钟
每日圈数 15.334537 15.334336
Detailed Information
固有亮度:
5
最大亮度:
2.5
卫星平台:
Starlink V1.0
覆盖范围:
全球
运营商:
太空探索技术公司
运营商所在国:
美国
制造商(研发单位):
太空探索技术公司
制造商所在国:
美国
使用方式:
暂无
Satellite Introduction
Starlink 计划是 SpaceX 推出的全球卫星互联网项目,通过发射低轨道卫星,为全球尤其是偏远地区提供高速、低延迟的互联网服务。自 2019 年起,Starlink 已部署数千颗卫星,旨在缩小全球数字鸿沟,推动互联网普及。该项目还为军事、航空等行业提供通信支持,带来广泛经济效益。
2D Orbit Map
3D Orbit Map
Orbit Altitude Analysis Chart
Orbit Inclination Analysis Chart
Orbit Comprehensive Analysis Chart
View Comprehensive Chart